[[{"header":{"parameterUnit":"m.s-1","parameterCategory":2,"la1":30.2991,"la2":30.254,"lo1":-89.0895,"lo2":-89.0444,"dy":0.0017,"dx":0.0017,"nx":28,"ny":28,"refTime":"2024-04-29T21:00:00:Z","depth":"0","parameterNumber":2,"parameterNumberName":"U-component_of_CURRENTS"},"data":[0,0,0,0,0,0,0,0,0,0,0,0,0,0,0,0,0,0,0,0,0,0,0,0,0,0,0,0,0,0,0,0,0,0,0,0,0,0,0,0,0,0,0,0,0,0,0,0,0,0,0,0,0,0,0,0,0,0,-0.3429,-0.3429,0,-0.333,-0.3329,-0.3327,-0.3192,-0.319,-0.3188,-0.3186,-0.3058,-0.3056,-0.3054,0,0,0,0,0,0,0,0,0,0,0,0,0,-0.3529,-0.3528,-0.3429,-0.3429,-0.3428,-0.333,-0.3329,-0.3327,-0.3192,-0.319,-0.3187,-0.3185,-0.3058,-0.3056,-0.3054,0,0,0,0,0,0,0,0,0,0,0,0,0,-0.346,-0.3527,-0.343,-0.3352,-0.3344,-0.3331,-0.3329,-0.3326,-0.3193,-0.319,-0.3187,-0.3184,-0.3059,-0.3056,-0.3054,-0.3096,0,0,-0.3046,-0.3045,0,0,0,0,0,0,0,0,-0.3464,-0.3456,-0.3364,-0.3357,-0.3348,-0.3274,-0.3317,-0.3249,-0.3193,-0.3246,-0.3186,-0.3183,-0.3132,-0.3123,-0.3106,-0.309,-0.3085,-0.3046,-0.3045,-0.3044,-0.3043,0,0,0,0,0,0,0,-0.3469,-0.346,-0.3386,-0.3363,-0.3354,-0.3331,-0.3317,-0.3303,-0.3203,-0.3241,-0.3232,-0.3228,-0.3126,-0.3109,-0.3102,-0.3083,-0.3046,-0.3044,-0.3043,-0.3042,-0.3109,-0.3112,0,0,0,0,0,0,-0.3491,-0.3464,-0.3389,-0.3384,-0.3405,-0.3332,-0.3316,-0.3297,-0.3203,-0.3187,-0.3231,-0.3222,-0.3114,-0.3105,-0.3097,-0.3166,-0.3044,-0.3041,-0.304,-0.3106,-0.311,-0.3113,0,0,0,0,0,0,-0.3493,-0.3485,-0.3393,-0.3426,-0.3413,-0.3333,-0.3313,-0.3297,-0.3275,-0.3196,-0.3178,-0.3225,-0.3111,-0.31,-0.3108,-0.3159,-0.304,-0.3038,-0.3102,-0.3107,-0.3112,-0.329,0,0,0,0,0,0,-0.3496,-0.3486,-0.3486,-0.3427,-0.3412,-0.3414,-0.3316,-0.3297,-0.3279,-0.3266,-0.3186,-0.3171,-0.3108,-0.3113,-0.3106,-0.3154,-0.3036,-0.3098,-0.3104,-0.311,-0.328,-0.33,-0.3318,0,0,0,0,0,-0.35,-0.3533,-0.3487,-0.3478,-0.3412,-0.3418,-0.3409,-0.334,-0.3282,-0.3302,-0.3246,-0.3173,-0.3146,-0.3114,-0.3105,-0.3153,-0.3095,-0.3102,-0.311,-0.3271,-0.3296,-0.3317,0,0,0,0,0,0,-0.3614,-0.3521,-0.3469,-0.3479,-0.3457,-0.3396,-0.341,-0.3358,-0.3328,-0.3311,-0.3219,-0.3203,-0.3227,-0.3178,-0.3145,-0.3193,-0.3108,-0.3114,-0.3234,-0.3257,-0.3275,-0.3278,-0.3034,0,0,0,0,0,-0.3632,-0.3601,-0.3544,-0.3555,-0.3547,-0.3477,-0.3469,-0.3426,-0.339,-0.337,-0.3321,-0.3275,-0.3255,-0.3244,-0.3221,-0.3257,-0.3189,-0.3282,-0.3301,-0.3317,-0.3315,-0.3268,-0.3282,-0.3137,-0.3137,-0.3137,0,0,-0.3681,-0.3627,-0.3611,-0.3573,-0.354,-0.3562,-0.3465,-0.3473,-0.3489,-0.3367,-0.3389,-0.3343,-0.328,-0.3312,-0.3319,-0.3275,-0.3331,-0.3326,-0.3341,-0.3329,-0.3277,-0.329,-0.3302,-0.3142,-0.3141,-0.3141,0,0,-0.3775,-0.3716,-0.3723,-0.3712,-0.3677,-0.3642,-0.3652,-0.361,-0.3586,-0.3605,-0.3522,-0.3517,-0.3485,-0.3458,-0.3434,-0.3552,-0.3433,-0.3541,-0.3637,-0.3593,-0.3603,-0.3611,-0.357,-0.3573,-0.355,-0.355,-0.3551,0,-0.3845,-0.3821,-0.3743,-0.3767,-0.3763,-0.3687,-0.3726,-0.3717,-0.3687,-0.3682,-0.3637,-0.3602,-0.3555,-0.358,-0.3612,-0.3594,-0.3536,-0.3553,-0.3615,-0.3621,-0.3627,-0.3582,-0.3583,-0.356,-0.3559,-0.3558,-0.3557,0,-0.3929,-0.3925,-0.3948,-0.3918,-0.3925,-0.3952,-0.3922,-0.3935,-0.389,-0.3862,-0.3876,-0.3823,-0.3785,-0.379,-0.3728,-0.376,-0.3698,-0.3643,-0.3552,-0.3652,-0.3599,-0.3597,-0.3573,-0.357,-0.3567,-0.3565,0,0,-0.4039,-0.4005,-0.4011,-0.3996,-0.3995,-0.3997,-0.4058,-0.4063,-0.4057,-0.4065,-0.4056,-0.4065,-0.4005,-0.3976,-0.3915,-0.3888,-0.3889,-0.3785,-0.3778,-0.3736,-0.3782,-0.3488,-0.3456,-0.3828,-0.3829,-0.3829,-0.3739,0,-0.4122,-0.4158,-0.4133,-0.4183,-0.419,-0.4159,-0.42,-0.4203,-0.4174,-0.4161,-0.4135,-0.4109,-0.4086,-0.4044,-0.4032,-0.3894,-0.3887,-0.3918,-0.3698,-0.3692,-0.341,-0.3445,-0.3318,-0.3202,-0.3736,-0.3735,-0.3735,0,-0.4191,-0.4194,-0.4246,-0.4232,-0.4236,-0.4271,-0.4263,-0.4292,-0.4285,-0.4259,-0.4263,-0.4203,-0.4193,-0.4127,-0.4029,-0.4038,-0.3938,-0.3851,-0.3844,-0.3495,-0.339,-0.3184,-0.3176,-0.3175,-0.373,-0.373,-0.373,0,-0.422,-0.4259,-0.4278,-0.4285,-0.4293,-0.4312,-0.4317,-0.4321,-0.4307,-0.4307,-0.4257,-0.4271,-0.4178,-0.4133,-0.3941,-0.3986,-0.3762,-0.3803,-0.3476,-0.3455,-0.3263,-0.3221,-0.3209,-0.3746,-0.3746,-0.3747,-0.3747,0,-0.4276,-0.4287,-0.4284,-0.4296,-0.4311,-0.432,-0.4327,-0.4335,-0.4319,-0.4234,-0.4289,-0.417,-0.4154,-0.4007,-0.3936,-0.3638,-0.3763,-0.3478,-0.3398,-0.3321,-0.3287,-0.3201,-0.3247,-0.3743,-0.3744,-0.3745,-0.3745,0,-0.4277,-0.4291,-0.4298,-0.4315,-0.4316,-0.4318,-0.4308,-0.4268,-0.429,-0.417,-0.4158,-0.407,-0.3842,-0.3784,-0.3608,-0.3525,-0.326,-0.3218,-0.3112,-0.3017,-0.2723,-0.2782,-0.2603,-0.2533,-0.2909,-0.2901,-0.2894,0,-0.4277,-0.4274,-0.4283,-0.425,-0.425,-0.4253,-0.4208,-0.4248,-0.4164,-0.4032,-0.391,-0.3722,-0.3468,-0.3148,-0.2976,-0.2806,-0.2881,-0.26,-0.2668,-0.2655,-0.2669,-0.2733,-0.2698,-0.2535,-0.2525,-0.2518,-0.2512,0,-0.4236,-0.4226,-0.4214,-0.4134,-0.4092,-0.4035,-0.3964,-0.3899,-0.3839,-0.3726,-0.3421,-0.3239,-0.2918,-0.2604,-0.238,-0.2292,-0.2533,-0.2429,-0.2474,-0.2393,-0.241,-0.2318,-0.267,-0.2445,-0.2452,-0.2457,-0.246,-0.2463,-0.4162,-0.4117,-0.4037,-0.3947,-0.3866,-0.367,-0.3553,-0.3435,-0.3239,-0.2936,-0.2903,-0.2571,-0.2412,-0.2037,-0.1926,-0.1766,-0.192,-0.1806,-0.1892,-0.1969,-0.1844,-0.1997,-0.1619,-0.162,-0.1622,-0.1624,-0.1625,0,-0.3986,-0.3903,-0.3812,-0.3642,-0.3425,-0.3469,-0.3243,-0.3054,-0.2704,-0.2492,-0.2218,-0.194,-0.1675,-0.1615,-0.1441,-0.1344,-0.1414,-0.1351,-0.1542,-0.1542,-0.1725,-0.1649,-0.1185,-0.1185,-0.1185,-0.1185,-0.1185,-0.1185,-0.3885,-0.3697,-0.3621,-0.3199,-0.3069,-0.2696,-0.2523,-0.2292,-0.2082,-0.1652,-0.147,-0.1389,-0.1407,-0.1431,-0.1301,-0.123,-0.1299,-0.1179,-0.1259,-0.1539,-0.1595,-0.1649,-0.1591,-0.1122,-0.1122,-0.1056,-0.1056,-0.1056]},{"header":{"parameterUnit":"m.s-1","parameterCategory":2,"la1":30.2991,"la2":30.254,"lo1":-89.0895,"lo2":-89.0444,"dy":0.0017,"dx":0.0017,"nx":28,"ny":28,"refTime":"2024-04-29T21:00:00:Z","depth":"0","parameterNumber":3,"parameterNumberName":"V-component_of_CURRENTS"},"data":[0,0,0,0,0,0,0,0,0,0,0,0,0,0,0,0,0,0,0,0,0,0,0,0,0,0,0,0,0,0,0,0,0,0,0,0,0,0,0,0,0,0,0,0,0,0,0,0,0,0,0,0,0,0,0,0,0,0,-0.099,-0.0989,0,-0.0906,-0.0905,-0.0904,-0.09,-0.0901,-0.0902,-0.0903,-0.0811,-0.0808,-0.0805,0,0,0,0,0,0,0,0,0,0,0,0,0,-0.1052,-0.1051,-0.099,-0.0989,-0.0988,-0.0906,-0.0905,-0.0903,-0.09,-0.0901,-0.0902,-0.0903,-0.0813,-0.0809,-0.0804,0,0,0,0,0,0,0,0,0,0,0,0,0,-0.1001,-0.1051,-0.099,-0.0977,-0.0975,-0.0906,-0.0905,-0.0903,-0.0899,-0.0901,-0.0903,-0.0904,-0.0814,-0.0809,-0.0804,-0.0739,0,0,-0.0788,-0.0786,0,0,0,0,0,0,0,0,-0.1004,-0.0999,-0.098,-0.0978,-0.0976,-0.0916,-0.0893,-0.0848,-0.0899,-0.0927,-0.0903,-0.0905,-0.0845,-0.0837,-0.0817,-0.0735,-0.0731,-0.0788,-0.0784,-0.0782,-0.0781,0,0,0,0,0,0,0,-0.1008,-0.1002,-0.0956,-0.0979,-0.0976,-0.0943,-0.0938,-0.0884,-0.0877,-0.0925,-0.0924,-0.0916,-0.0844,-0.0822,-0.0814,-0.073,-0.0788,-0.0783,-0.078,-0.0778,-0.055,-0.0547,0,0,0,0,0,0,-0.1023,-0.1006,-0.0958,-0.0953,-0.0995,-0.0941,-0.0935,-0.0933,-0.0878,-0.0871,-0.0915,-0.0916,-0.083,-0.082,-0.0811,-0.0717,-0.0782,-0.0777,-0.0774,-0.0553,-0.0549,-0.0546,0,0,0,0,0,0,-0.1025,-0.102,-0.0962,-0.0978,-0.0969,-0.0939,-0.0935,-0.093,-0.0904,-0.0871,-0.0864,-0.0894,-0.0831,-0.0819,-0.0748,-0.0714,-0.0775,-0.077,-0.0556,-0.0552,-0.0548,-0.0537,0,0,0,0,0,0,-0.1027,-0.1021,-0.1014,-0.0979,-0.0968,-0.0908,-0.0933,-0.0927,-0.0897,-0.0898,-0.085,-0.0844,-0.0831,-0.0756,-0.0743,-0.0708,-0.0766,-0.056,-0.0554,-0.0549,-0.0541,-0.0533,-0.0526,0,0,0,0,0,-0.103,-0.1006,-0.1014,-0.1007,-0.0963,-0.0906,-0.0896,-0.088,-0.0894,-0.0866,-0.0837,-0.0845,-0.0712,-0.0749,-0.0735,-0.0698,-0.0563,-0.0556,-0.0549,-0.0544,-0.0534,-0.0526,0,0,0,0,0,0,-0.1005,-0.1003,-0.1011,-0.0982,-0.0946,-0.0906,-0.0876,-0.0869,-0.0823,-0.0826,-0.0807,-0.0796,-0.0719,-0.0698,-0.074,-0.061,-0.0637,-0.0628,-0.0638,-0.0628,-0.0621,-0.0626,-0.0762,0,0,0,0,0,-0.1003,-0.1002,-0.0975,-0.0949,-0.0933,-0.0905,-0.0879,-0.0868,-0.0828,-0.0811,-0.078,-0.0735,-0.0676,-0.0649,-0.0594,-0.0523,-0.049,-0.0485,-0.0478,-0.0472,-0.0462,-0.0384,-0.037,-0.0524,-0.0524,-0.0524,0,0,-0.0986,-0.0983,-0.0981,-0.0946,-0.0921,-0.089,-0.0892,-0.0847,-0.0816,-0.0804,-0.0746,-0.0702,-0.0648,-0.0572,-0.0536,-0.0555,-0.0405,-0.0463,-0.0459,-0.0452,-0.0376,-0.0361,-0.0348,-0.052,-0.052,-0.0521,0,0,-0.0958,-0.0948,-0.0945,-0.0919,-0.0886,-0.086,-0.0848,-0.0803,-0.0777,-0.0712,-0.0694,-0.062,-0.0548,-0.0493,-0.0459,-0.0365,-0.0363,-0.0358,-0.033,-0.0255,-0.0242,-0.0231,-0.016,-0.0142,-0.036,-0.036,-0.036,0,-0.0936,-0.0948,-0.0923,-0.091,-0.0897,-0.0852,-0.0836,-0.0782,-0.0719,-0.0689,-0.0691,-0.0554,-0.0502,-0.0405,-0.0373,-0.0348,-0.032,-0.0381,-0.0248,-0.0236,-0.0225,-0.0155,-0.0136,-0.0359,-0.0359,-0.0359,-0.0359,0,-0.0924,-0.0926,-0.0911,-0.0901,-0.0859,-0.0837,-0.0776,-0.0725,-0.0694,-0.065,-0.0548,-0.0467,-0.0396,-0.0355,-0.0336,-0.0226,-0.0236,-0.0249,-0.0285,-0.021,-0.0139,-0.012,-0.0357,-0.0357,-0.0358,-0.0358,0,0,-0.0915,-0.0915,-0.0913,-0.0932,-0.0872,-0.0844,-0.0766,-0.0699,-0.0663,-0.0568,-0.0514,-0.0375,-0.0342,-0.0298,-0.0254,-0.0175,-0.0054,-0.0186,-0.0182,-0.0137,0.0102,0.0164,0.0191,-0.0067,-0.0064,-0.0061,0.0121,0,-0.0929,-0.0955,-0.092,-0.0913,-0.0932,-0.0856,-0.0794,-0.0711,-0.0637,-0.056,-0.0441,-0.0366,-0.0318,-0.0292,-0.0195,-0.0099,-0.0004,-0.0102,0.0043,0.0048,0.0075,0.0216,0.0223,0.0391,0.014,0.0143,0.0146,0,-0.0959,-0.0981,-0.1009,-0.099,-0.098,-0.0946,-0.0869,-0.0799,-0.0654,-0.0599,-0.0486,-0.04,-0.0246,-0.0234,-0.0004,-0.0083,0.0022,0.0103,0.0111,0.0178,0.0147,0.0278,0.0436,0.0547,0.0176,0.0173,0.0171,0,-0.1061,-0.1046,-0.109,-0.1086,-0.1032,-0.101,-0.0959,-0.0829,-0.0756,-0.063,-0.0563,-0.0396,-0.0295,-0.0147,0.0054,0.0014,0.0296,0.0257,0.0423,0.0427,0.0473,0.0476,0.0739,0.0436,0.0435,0.0435,0.0434,0,-0.1144,-0.1178,-0.1151,-0.1185,-0.1192,-0.1109,-0.1062,-0.0993,-0.0847,-0.0731,-0.0601,-0.0469,-0.0269,-0.0074,0.0066,0.0329,0.0316,0.0475,0.05,0.048,0.0482,0.0608,0.0629,0.0442,0.044,0.0439,0.0438,0,-0.1278,-0.1268,-0.1317,-0.1279,-0.126,-0.127,-0.1141,-0.1066,-0.0952,-0.0797,-0.075,-0.0499,-0.0241,-0.0026,0.0242,0.0371,0.0672,0.0671,0.064,0.0659,0.0899,0.0918,0.1212,0.1304,0.0885,0.0888,0.0891,0,-0.1364,-0.1412,-0.1406,-0.1397,-0.1387,-0.1357,-0.1287,-0.1157,-0.104,-0.0783,-0.0685,-0.0415,-0.0163,0.0245,0.0486,0.0762,0.0833,0.0926,0.0877,0.0971,0.1009,0.1015,0.1069,0.0943,0.0946,0.0948,0.095,0,-0.1514,-0.1509,-0.1531,-0.1502,-0.146,-0.1391,-0.1282,-0.1204,-0.0981,-0.0836,-0.0548,-0.034,0.0068,0.0413,0.0745,0.0892,0.1008,0.0982,0.1095,0.112,0.1129,0.1205,0.0752,0.0969,0.0967,0.0966,0.0965,0.0964,-0.1607,-0.164,-0.1614,-0.1574,-0.15,-0.1362,-0.127,-0.1103,-0.0914,-0.0609,-0.0449,-0.0119,0.0315,0.0801,0.0974,0.1265,0.1227,0.1334,0.1363,0.1371,0.1438,0.1041,0.1267,0.1267,0.1267,0.1267,0.1266,0,-0.17,-0.1681,-0.165,-0.1563,-0.1428,-0.138,-0.1181,-0.1024,-0.0771,-0.0535,-0.0266,0.023,0.0664,0.1019,0.1437,0.1613,0.1636,0.1686,0.1682,0.1731,0.1403,0.1382,0.1624,0.1624,0.1624,0.1624,0.1624,0.1624,-0.1745,-0.1738,-0.1684,-0.1478,-0.1371,-0.1135,-0.0999,-0.0802,-0.0595,-0.021,0.0071,0.031,0.0777,0.1469,0.1859,0.1896,0.2038,0.2028,0.2132,0.186,0.1827,0.1796,0.1786,0.2108,0.2109,0.2434,0.2437,0.244]}],[{"header":{"parameterUnit":"m.s-1","parameterCategory":2,"la1":30.2991,"la2":30.254,"lo1":-89.0895,"lo2":-89.0444,"dy":0.0017,"dx":0.0017,"nx":28,"ny":28,"refTime":"2024-04-29T21:00:00:Z","depth":"2","parameterNumber":2,"parameterNumberName":"U-component_of_CURRENTS"},"data":[0,0,0,0,0,0,0,0,0,0,0,0,0,0,0,0,0,0,0,0,0,0,0,0,0,0,0,0,0,0,0,0,0,0,0,0,0,0,0,0,0,0,0,0,0,0,0,0,0,0,0,0,0,0,0,0,0,0,-0.2553,-0.2553,0,-0.2539,-0.2538,-0.2537,-0.2401,-0.2399,-0.2397,-0.2394,-0.2286,-0.2286,-0.2285,0,0,0,0,0,0,0,0,0,0,0,0,0,-0.2101,-0.2111,-0.2553,-0.2553,-0.2554,-0.2539,-0.2538,-0.2536,-0.2402,-0.2399,-0.2396,-0.2393,-0.2287,-0.2286,-0.2285,0,0,0,0,0,0,0,0,0,0,0,0,0,-0.2203,-0.2115,-0.2552,-0.2494,-0.2489,-0.2539,-0.2538,-0.2536,-0.2402,-0.2399,-0.2395,-0.2392,-0.2287,-0.2286,-0.2285,-0.2348,0,0,-0.2281,-0.2281,0,0,0,0,0,0,0,0,-0.2198,-0.2219,-0.2502,-0.2498,-0.2493,-0.2478,-0.2339,-0.2472,-0.2403,-0.2423,-0.2394,-0.239,-0.2352,-0.2345,-0.2335,-0.2342,-0.2338,-0.2281,-0.2281,-0.228,-0.228,0,0,0,0,0,0,0,-0.2191,-0.2216,-0.2535,-0.2503,-0.2498,-0.2345,-0.2358,-0.2362,-0.2396,-0.2421,-0.2414,-0.2432,-0.2347,-0.2337,-0.2332,-0.2336,-0.2281,-0.228,-0.228,-0.2279,-0.2346,-0.2349,0,0,0,0,0,0,-0.2242,-0.2214,-0.2536,-0.2536,-0.2347,-0.2359,-0.2372,-0.2477,-0.2398,-0.2387,-0.2435,-0.2426,-0.234,-0.2333,-0.2327,-0.2404,-0.228,-0.2279,-0.2279,-0.2344,-0.2347,-0.2349,0,0,0,0,0,0,-0.2234,-0.2275,-0.2537,-0.2375,-0.24,-0.2374,-0.249,-0.2479,-0.2475,-0.2412,-0.2396,-0.2445,-0.2337,-0.2329,-0.2333,-0.2398,-0.2279,-0.2278,-0.2341,-0.2345,-0.2348,-0.2553,0,0,0,0,0,0,-0.2223,-0.2274,-0.2367,-0.2384,-0.2412,-0.258,-0.2495,-0.2482,-0.2497,-0.2485,-0.2417,-0.2401,-0.2334,-0.2336,-0.2332,-0.2394,-0.2277,-0.2338,-0.2343,-0.2347,-0.2543,-0.2563,-0.258,0,0,0,0,0,-0.2208,-0.234,-0.2374,-0.2411,-0.2545,-0.2584,-0.2583,-0.2537,-0.2502,-0.2516,-0.2464,-0.2404,-0.2361,-0.2338,-0.2333,-0.2396,-0.2336,-0.2341,-0.2347,-0.2535,-0.2559,-0.258,0,0,0,0,0,0,-0.2239,-0.2342,-0.2376,-0.2553,-0.258,-0.2565,-0.2582,-0.2567,-0.2541,-0.2522,-0.2445,-0.2429,-0.245,-0.2402,-0.2378,-0.2425,-0.2337,-0.2341,-0.2481,-0.2504,-0.2522,-0.2519,-0.2276,0,0,0,0,0,-0.2294,-0.2385,-0.2466,-0.26,-0.2623,-0.2614,-0.2627,-0.2607,-0.259,-0.2574,-0.2534,-0.249,-0.2475,-0.2471,-0.2438,-0.2487,-0.2405,-0.2519,-0.2538,-0.2554,-0.2547,-0.2509,-0.2524,-0.2367,-0.2367,-0.2367,0,0,-0.2334,-0.2412,-0.2463,-0.2604,-0.2612,-0.2674,-0.2608,-0.2644,-0.2683,-0.2573,-0.2601,-0.2557,-0.2499,-0.2529,-0.2536,-0.2498,-0.2553,-0.2561,-0.2575,-0.2559,-0.2517,-0.2532,-0.2545,-0.2371,-0.237,-0.237,0,0,-0.2425,-0.2542,-0.2625,-0.2663,-0.2719,-0.272,-0.2747,-0.2762,-0.2749,-0.2791,-0.2714,-0.2708,-0.2695,-0.2663,-0.2647,-0.2757,-0.2648,-0.2756,-0.2862,-0.2828,-0.284,-0.285,-0.2757,-0.2757,-0.2775,-0.2775,-0.2775,0,-0.2455,-0.2606,-0.2648,-0.2735,-0.274,-0.2757,-0.2804,-0.2845,-0.2855,-0.2846,-0.2817,-0.2785,-0.2755,-0.2778,-0.282,-0.2801,-0.2739,-0.2789,-0.2853,-0.2861,-0.2867,-0.2769,-0.2766,-0.2786,-0.2784,-0.2783,-0.2782,0,-0.2597,-0.2701,-0.2743,-0.2853,-0.2884,-0.2915,-0.2972,-0.3026,-0.3015,-0.3011,-0.302,-0.298,-0.2942,-0.2965,-0.2936,-0.2983,-0.2907,-0.2877,-0.2799,-0.2896,-0.2785,-0.2779,-0.2801,-0.2797,-0.2794,-0.2791,0,0,-0.2644,-0.2796,-0.2811,-0.2802,-0.2914,-0.2912,-0.3052,-0.3097,-0.3098,-0.3165,-0.3136,-0.3192,-0.3141,-0.3119,-0.3087,-0.3093,-0.3108,-0.3031,-0.3025,-0.2942,-0.2991,-0.2818,-0.2793,-0.31,-0.31,-0.31,-0.2891,0,-0.2694,-0.2798,-0.2895,-0.2935,-0.2933,-0.3009,-0.309,-0.3151,-0.3159,-0.316,-0.319,-0.3145,-0.3212,-0.316,-0.3208,-0.3099,-0.3102,-0.3164,-0.2904,-0.2894,-0.2734,-0.2784,-0.2637,-0.2429,-0.2884,-0.2882,-0.2881,0,-0.2785,-0.279,-0.2846,-0.284,-0.2853,-0.2939,-0.2948,-0.3021,-0.3113,-0.3106,-0.3158,-0.313,-0.3183,-0.3185,-0.3152,-0.3189,-0.3124,-0.3061,-0.305,-0.2808,-0.271,-0.2406,-0.2398,-0.2868,-0.2869,-0.287,-0.2871,0,-0.2657,-0.2741,-0.2731,-0.2745,-0.2807,-0.2866,-0.2924,-0.3012,-0.3002,-0.3069,-0.302,-0.3094,-0.3041,-0.3067,-0.3004,-0.3072,-0.2886,-0.294,-0.2725,-0.2708,-0.2485,-0.2448,-0.2904,-0.2904,-0.2904,-0.2905,-0.2906,0,-0.2645,-0.2627,-0.2676,-0.2664,-0.2598,-0.2726,-0.2721,-0.2797,-0.2872,-0.2812,-0.2966,-0.2891,-0.301,-0.2932,-0.2945,-0.2782,-0.2842,-0.2727,-0.2652,-0.2549,-0.2522,-0.2828,-0.2822,-0.2897,-0.2899,-0.29,-0.2902,0,-0.2573,-0.2625,-0.2548,-0.2563,-0.2554,-0.2522,-0.2603,-0.2592,-0.2699,-0.2633,-0.2648,-0.2707,-0.2632,-0.2669,-0.2598,-0.2609,-0.2512,-0.2428,-0.2271,-0.2184,-0.2382,-0.239,-0.2213,-0.2205,-0.2199,-0.2193,-0.2189,0,-0.2543,-0.2508,-0.242,-0.2342,-0.2377,-0.2367,-0.2363,-0.2488,-0.2473,-0.2484,-0.2409,-0.2361,-0.2293,-0.2143,-0.2138,-0.2076,-0.2227,-0.188,-0.2019,-0.2371,-0.2316,-0.2333,-0.2349,-0.1794,-0.1787,-0.1781,-0.1776,0,-0.2389,-0.2392,-0.2329,-0.2161,-0.2116,-0.2055,-0.2084,-0.2048,-0.2162,-0.2121,-0.2037,-0.1998,-0.189,-0.1772,-0.1688,-0.1664,-0.1909,-0.1751,-0.2122,-0.1998,-0.1961,-0.1913,-0.1945,-0.1722,-0.1728,-0.1732,-0.1734,-0.1737,-0.2218,-0.2155,-0.2069,-0.1915,-0.1843,-0.1766,-0.1709,-0.1756,-0.1697,-0.1648,-0.1676,-0.1584,-0.1601,-0.1418,-0.1338,-0.1313,-0.1485,-0.149,-0.1516,-0.1547,-0.1542,-0.1496,-0.1165,-0.1167,-0.1169,-0.1171,-0.1172,0,-0.1905,-0.192,-0.1803,-0.1629,-0.1508,-0.1557,-0.1491,-0.1435,-0.1344,-0.1353,-0.1303,-0.1136,-0.106,-0.1093,-0.0977,-0.0966,-0.1048,-0.0936,-0.107,-0.1121,-0.1166,-0.1152,-0.0667,-0.0665,-0.0664,-0.0663,0,0,-0.1719,-0.1574,-0.1563,-0.1293,-0.1239,-0.1079,-0.1029,-0.0977,-0.0962,-0.0869,-0.0853,-0.096,-0.1018,-0.0828,-0.08,-0.0709,-0.0913,-0.0671,-0.1071,-0.1275,-0.1319,-0.1469,-0.1498,0,0,0,0,0]},{"header":{"parameterUnit":"m.s-1","parameterCategory":2,"la1":30.2991,"la2":30.254,"lo1":-89.0895,"lo2":-89.0444,"dy":0.0017,"dx":0.0017,"nx":28,"ny":28,"refTime":"2024-04-29T21:00:00:Z","depth":"2","parameterNumber":3,"parameterNumberName":"V-component_of_CURRENTS"},"data":[0,0,0,0,0,0,0,0,0,0,0,0,0,0,0,0,0,0,0,0,0,0,0,0,0,0,0,0,0,0,0,0,0,0,0,0,0,0,0,0,0,0,0,0,0,0,0,0,0,0,0,0,0,0,0,0,0,0,-0.0163,-0.0162,0,-0.0037,-0.0035,-0.0034,-0.002,-0.0021,-0.0022,-0.0023,0.0085,0.0089,0.0093,0,0,0,0,0,0,0,0,0,0,0,0,0,-0.0176,-0.0177,-0.0163,-0.0162,-0.016,-0.0037,-0.0035,-0.0033,-0.0019,-0.0021,-0.0022,-0.0024,0.0084,0.0088,0.0093,0,0,0,0,0,0,0,0,0,0,0,0,0,-0.0123,-0.0178,-0.0163,-0.0138,-0.0134,-0.0037,-0.0035,-0.0033,-0.0019,-0.0021,-0.0023,-0.0025,0.0082,0.0088,0.0094,0.0168,0,0,0.0112,0.0115,0,0,0,0,0,0,0,0,-0.0126,-0.0123,-0.0143,-0.0139,-0.0135,-0.0045,0.0,0.0034,-0.0019,-0.0063,-0.0023,-0.0025,0.0041,0.0051,0.0078,0.0173,0.0178,0.0113,0.0117,0.0119,0.0121,0,0,0,0,0,0,0,-0.013,-0.0127,-0.0113,-0.0141,-0.0136,-0.0058,-0.0055,0.0008,-0.0003,-0.0059,-0.0058,-0.0043,0.0043,0.0072,0.0081,0.018,0.0113,0.0118,0.0122,0.0124,0.0349,0.0351,0,0,0,0,0,0,-0.0155,-0.0132,-0.0117,-0.011,-0.0135,-0.0058,-0.0053,-0.0073,-0.0003,0.0006,-0.0041,-0.0043,0.0063,0.0074,0.0085,0.0168,0.0119,0.0125,0.0128,0.0347,0.035,0.0352,0,0,0,0,0,0,-0.0156,-0.0156,-0.0123,-0.0115,-0.0105,-0.0057,-0.0077,-0.0069,-0.0046,0.0011,0.0019,-0.0028,0.0062,0.0076,0.0147,0.0172,0.0128,0.0133,0.0344,0.0348,0.0351,0.034,0,0,0,0,0,0,-0.0158,-0.0158,-0.0186,-0.0118,-0.0107,-0.0072,-0.0075,-0.0065,-0.0034,-0.0034,0.0026,0.0034,0.0062,0.0138,0.0153,0.0179,0.0138,0.0341,0.0346,0.035,0.0337,0.0342,0.0347,0,0,0,0,0,-0.0159,-0.0191,-0.0189,-0.0186,-0.0146,-0.0072,-0.0058,-0.0028,-0.0031,-0.0016,0.0031,0.0032,0.0176,0.0146,0.0163,0.0191,0.0339,0.0344,0.035,0.0335,0.0341,0.0347,0,0,0,0,0,0,-0.0221,-0.019,-0.0187,-0.0214,-0.0149,-0.007,-0.0058,-0.0025,0.0027,0.002,0.0067,0.0081,0.0149,0.0184,0.0148,0.0272,0.0257,0.0266,0.024,0.0247,0.0251,0.0232,0.0143,0,0,0,0,0,-0.0245,-0.0263,-0.0199,-0.0219,-0.0191,-0.0121,-0.0091,-0.006,0.0,0.002,0.0067,0.0125,0.019,0.0225,0.0281,0.0358,0.0364,0.0388,0.0393,0.0397,0.0396,0.0442,0.0449,0.037,0.037,0.0369,0,0,-0.0275,-0.026,-0.0273,-0.0232,-0.0186,-0.0136,-0.0109,-0.0061,-0.0017,0.0027,0.0087,0.014,0.0214,0.029,0.0325,0.0319,0.042,0.0403,0.0406,0.0403,0.0448,0.0455,0.0462,0.0373,0.0373,0.0372,0,0,-0.0318,-0.0327,-0.0339,-0.0281,-0.0211,-0.0157,-0.0143,-0.0056,-0.0021,0.0056,0.0099,0.0173,0.0264,0.0332,0.0376,0.045,0.044,0.0465,0.048,0.0525,0.053,0.0536,0.0528,0.0532,0.0473,0.0473,0.0473,0,-0.0356,-0.0369,-0.0324,-0.0293,-0.0259,-0.0169,-0.0143,-0.007,0.003,0.0077,0.0064,0.0232,0.0286,0.0405,0.0426,0.0459,0.0459,0.0444,0.0527,0.0532,0.0538,0.0529,0.0534,0.0473,0.0473,0.0473,0.0473,0,-0.0385,-0.038,-0.0372,-0.0319,-0.0269,-0.0228,-0.0123,-0.005,-0.0004,0.0069,0.0179,0.0262,0.0358,0.0397,0.0432,0.0522,0.0498,0.0517,0.0498,0.0544,0.0533,0.0538,0.0473,0.0473,0.0473,0.0473,0,0,-0.0502,-0.0418,-0.0415,-0.0395,-0.0283,-0.0249,-0.0144,-0.0031,0.0015,0.0134,0.0193,0.0341,0.0382,0.0437,0.05,0.0552,0.0584,0.0545,0.0548,0.0512,0.0636,0.0597,0.0599,0.0607,0.0609,0.061,0.0601,0,-0.0538,-0.0523,-0.0457,-0.0418,-0.0394,-0.0266,-0.0186,-0.0063,0.0017,0.0105,0.025,0.0319,0.0401,0.0422,0.0502,0.0562,0.0603,0.0582,0.062,0.062,0.056,0.0607,0.0586,0.0575,0.0606,0.0607,0.0608,0,-0.0585,-0.0569,-0.0562,-0.0476,-0.0455,-0.0403,-0.0287,-0.0203,-0.0018,0.0046,0.0183,0.0262,0.0409,0.0424,0.0582,0.0558,0.0596,0.0636,0.0637,0.0609,0.0593,0.0544,0.0584,0.0617,0.0616,0.0616,0.0615,0,-0.0703,-0.064,-0.0656,-0.0623,-0.0504,-0.0457,-0.0378,-0.0217,-0.0156,0.0004,0.0027,0.0226,0.0279,0.0406,0.0515,0.054,0.0622,0.0669,0.0673,0.0668,0.0665,0.0657,0.0751,0.0751,0.0751,0.0751,0.0751,0,-0.0772,-0.0768,-0.0711,-0.0703,-0.069,-0.0571,-0.0527,-0.04,-0.0267,-0.0207,-0.0027,0.0025,0.0269,0.0356,0.0476,0.058,0.0601,0.0676,0.0678,0.0658,0.0651,0.0707,0.0702,0.075,0.075,0.075,0.075,0,-0.0863,-0.0838,-0.0827,-0.075,-0.0737,-0.0715,-0.0606,-0.0563,-0.0439,-0.0368,-0.0324,-0.0124,0.0013,0.0199,0.0373,0.0494,0.0609,0.0624,0.0558,0.0554,0.0635,0.063,0.0667,0.0666,0.0665,0.0664,0.0664,0,-0.0907,-0.0921,-0.0886,-0.0893,-0.0853,-0.0815,-0.0777,-0.0639,-0.0592,-0.046,-0.0433,-0.03,-0.0159,0.0071,0.0294,0.0487,0.0524,0.0552,0.0634,0.0636,0.0634,0.063,0.0627,0.0611,0.061,0.0609,0.0609,0,-0.0965,-0.0955,-0.0949,-0.0967,-0.0958,-0.0935,-0.0872,-0.0863,-0.071,-0.0649,-0.0535,-0.0429,-0.0204,0.0049,0.0267,0.0385,0.0541,0.054,0.0572,0.0632,0.0583,0.058,0.0579,0.0601,0.0602,0.0602,0.0603,0.0603,-0.1002,-0.1017,-0.102,-0.1025,-0.102,-0.1007,-0.0973,-0.092,-0.0846,-0.0697,-0.0614,-0.0414,-0.021,0.0154,0.0303,0.0458,0.0483,0.0565,0.0569,0.0573,0.0565,0.0517,0.0518,0.0518,0.0518,0.0519,0.0519,0,-0.1049,-0.1059,-0.1075,-0.1068,-0.105,-0.1038,-0.0997,-0.0936,-0.085,-0.0716,-0.0566,-0.03,-0.0067,0.0136,0.0379,0.0515,0.0541,0.0534,0.056,0.0565,0.0571,0.0564,0.0517,0.0517,0.0518,0.0518,0,0,-0.1079,-0.1106,-0.1104,-0.1083,-0.107,-0.1024,-0.0991,-0.0908,-0.0789,-0.0612,-0.0443,-0.0264,-0.0035,0.0144,0.0297,0.0421,0.0462,0.0427,0.0412,0.0427,0.0431,0.0565,0.0557,0,0,0,0,0]}],[{"header":{"parameterUnit":"m.s-1","parameterCategory":2,"la1":30.2991,"la2":30.254,"lo1":-89.0895,"lo2":-89.0444,"dy":0.0017,"dx":0.0017,"nx":28,"ny":28,"refTime":"2024-04-29T21:00:00:Z","depth":"4","parameterNumber":2,"parameterNumberName":"U-component_of_CURRENTS"},"data":[0,0,0,0,0,0,0,0,0,0,0,0,0,0,0,0,0,0,0,0,0,0,0,0,0,0,0,0,0,0,0,0,0,0,0,0,0,0,0,0,0,0,0,0,0,0,0,0,0,0,0,0,0,0,0,0,0,0,-0.0787,-0.0787,0,-0.0796,-0.0796,-0.0797,-0.0806,-0.0806,-0.0805,-0.0805,-0.0783,-0.0783,-0.0782,0,0,0,0,0,0,0,0,0,0,0,0,0,-0.0792,-0.0792,-0.0787,-0.0787,-0.0786,-0.0796,-0.0796,-0.0797,-0.0806,-0.0806,-0.0805,-0.0805,-0.0783,-0.0783,-0.0782,0,0,0,0,0,0,0,0,0,0,0,0,0,-0.0798,-0.0792,-0.0787,-0.0789,-0.0789,-0.0795,-0.0796,-0.0797,-0.0806,-0.0806,-0.0805,-0.0805,-0.0783,-0.0783,-0.0782,-0.0788,0,0,-0.0781,-0.0781,0,0,0,0,0,0,0,0,-0.0798,-0.0799,-0.0789,-0.0789,-0.0789,-0.0795,-0.0789,-0.0791,-0.0806,-0.0804,-0.0805,-0.0805,-0.0782,-0.0781,-0.0791,-0.0787,-0.0786,-0.0781,-0.078,-0.078,-0.078,0,0,0,0,0,0,0,-0.0798,-0.0799,-0.0795,-0.0789,-0.0788,-0.0793,-0.0794,-0.079,-0.0798,-0.0804,-0.0804,-0.0798,-0.0782,-0.0791,-0.079,-0.0785,-0.0781,-0.078,-0.078,-0.078,-0.0918,-0.0921,0,0,0,0,0,0,-0.0787,-0.0798,-0.0795,-0.0795,-0.0787,-0.0793,-0.0794,-0.0797,-0.0799,-0.0798,-0.0798,-0.0798,-0.0792,-0.0791,-0.0789,-0.0857,-0.078,-0.078,-0.0779,-0.0914,-0.0918,-0.0923,0,0,0,0,0,0,-0.0788,-0.0787,-0.0794,-0.0793,-0.0793,-0.0793,-0.0797,-0.0798,-0.0809,-0.0794,-0.0793,-0.0808,-0.0792,-0.079,-0.0799,-0.0854,-0.078,-0.0779,-0.0909,-0.0915,-0.0921,-0.0953,0,0,0,0,0,0,-0.0788,-0.0788,-0.0792,-0.0792,-0.0793,-0.0814,-0.0796,-0.0798,-0.0803,-0.0804,-0.0801,-0.0799,-0.0791,-0.08,-0.0799,-0.0852,-0.0779,-0.0904,-0.0912,-0.0919,-0.0947,-0.096,-0.097,0,0,0,0,0,-0.0788,-0.0788,-0.0793,-0.0792,-0.0797,-0.0814,-0.0817,-0.0817,-0.0804,-0.0824,-0.0818,-0.0799,-0.0849,-0.0801,-0.0799,-0.0853,-0.09,-0.0909,-0.0918,-0.0942,-0.0957,-0.097,0,0,0,0,0,0,-0.0782,-0.0789,-0.0794,-0.0794,-0.0812,-0.0815,-0.0817,-0.0821,-0.0833,-0.0831,-0.0813,-0.0811,-0.0852,-0.0855,-0.0803,-0.0927,-0.0887,-0.0896,-0.0907,-0.092,-0.0932,-0.0889,-0.0778,0,0,0,0,0,-0.0785,-0.0792,-0.0804,-0.0804,-0.0811,-0.0817,-0.0822,-0.0835,-0.0838,-0.0844,-0.086,-0.0879,-0.089,-0.0901,-0.0923,-0.0962,-0.0944,-0.1015,-0.1026,-0.1035,-0.1008,-0.1053,-0.1064,-0.0952,-0.0952,-0.0952,0,0,-0.0781,-0.0783,-0.0787,-0.0805,-0.081,-0.0838,-0.0821,-0.0839,-0.0877,-0.0838,-0.0901,-0.0908,-0.091,-0.0966,-0.0988,-0.0969,-0.1061,-0.1047,-0.1053,-0.102,-0.1063,-0.1073,-0.1082,-0.0958,-0.0957,-0.0956,0,0,-0.077,-0.078,-0.0785,-0.0807,-0.0827,-0.085,-0.0858,-0.0896,-0.0927,-0.098,-0.0968,-0.099,-0.1045,-0.1048,-0.1049,-0.1137,-0.1116,-0.1187,-0.1203,-0.1249,-0.1257,-0.1263,-0.1245,-0.1249,-0.1197,-0.1197,-0.1198,0,-0.0758,-0.0786,-0.0791,-0.0805,-0.0827,-0.0857,-0.0886,-0.0924,-0.0976,-0.0995,-0.1016,-0.1091,-0.1078,-0.1106,-0.1134,-0.1154,-0.1163,-0.1136,-0.1257,-0.1263,-0.1269,-0.1249,-0.1253,-0.12,-0.12,-0.12,-0.1199,0,-0.0762,-0.0794,-0.0797,-0.0839,-0.086,-0.09,-0.0947,-0.1003,-0.1053,-0.1086,-0.1159,-0.1175,-0.121,-0.1237,-0.119,-0.1247,-0.1232,-0.1256,-0.1201,-0.1281,-0.1256,-0.126,-0.1204,-0.1203,-0.1202,-0.1202,0,0,-0.0698,-0.0791,-0.079,-0.0825,-0.0895,-0.0906,-0.098,-0.1044,-0.1078,-0.1175,-0.1227,-0.1257,-0.1274,-0.1277,-0.1276,-0.1296,-0.1319,-0.1288,-0.1289,-0.1229,-0.1387,-0.1307,-0.1302,-0.1378,-0.1379,-0.1381,-0.1346,0,-0.0706,-0.0764,-0.0809,-0.0869,-0.0905,-0.0964,-0.1022,-0.1074,-0.1147,-0.1218,-0.1255,-0.1311,-0.1296,-0.1321,-0.1343,-0.1316,-0.1335,-0.1323,-0.1351,-0.1349,-0.1238,-0.1306,-0.1385,-0.1348,-0.1349,-0.135,-0.135,0,-0.068,-0.0738,-0.0812,-0.0898,-0.0914,-0.096,-0.1042,-0.1095,-0.1179,-0.1243,-0.1315,-0.1353,-0.1373,-0.1384,-0.1394,-0.1396,-0.1385,-0.1375,-0.1376,-0.1281,-0.1277,-0.1262,-0.1356,-0.1356,-0.1355,-0.1355,-0.1354,0,-0.0608,-0.0717,-0.0789,-0.0821,-0.0932,-0.0969,-0.1019,-0.1095,-0.1146,-0.1257,-0.1313,-0.138,-0.1413,-0.144,-0.1418,-0.1416,-0.1431,-0.1436,-0.1357,-0.135,-0.1409,-0.1403,-0.1464,-0.1464,-0.1464,-0.1464,-0.1465,0,-0.0572,-0.0606,-0.0772,-0.0798,-0.087,-0.0932,-0.1002,-0.1063,-0.1166,-0.121,-0.1315,-0.1377,-0.1434,-0.1457,-0.1441,-0.1397,-0.1464,-0.1343,-0.1345,-0.1426,-0.1423,-0.141,-0.1404,-0.1463,-0.1463,-0.1464,-0.1464,0,-0.0428,-0.0554,-0.0633,-0.0789,-0.0836,-0.0861,-0.0986,-0.1029,-0.1137,-0.1207,-0.1247,-0.1364,-0.1383,-0.1424,-0.1439,-0.1402,-0.1387,-0.1367,-0.1414,-0.1422,-0.1256,-0.1254,-0.1246,-0.1243,-0.1241,-0.1239,-0.1237,0,-0.0352,-0.0394,-0.0594,-0.0653,-0.0725,-0.0808,-0.0864,-0.1,-0.1045,-0.1185,-0.1197,-0.1279,-0.1338,-0.1296,-0.1348,-0.1333,-0.1331,-0.1306,-0.1295,-0.1235,-0.1239,-0.124,-0.1241,-0.1233,-0.1232,-0.1232,-0.1231,0,-0.0205,-0.0302,-0.0379,-0.0528,-0.0619,-0.0711,-0.0796,-0.0838,-0.0969,-0.1085,-0.1139,-0.1184,-0.1204,-0.1229,-0.1239,-0.1234,-0.131,-0.128,-0.1284,-0.1273,-0.122,-0.1226,-0.1229,-0.1223,-0.1224,-0.1225,-0.1225,0,-0.0092,-0.0118,-0.0265,-0.0383,-0.0497,-0.0582,-0.0658,-0.0737,-0.0815,-0.0977,-0.0989,-0.1092,-0.118,-0.1178,-0.119,-0.1178,-0.115,-0.1111,-0.1124,-0.1133,-0.1118,-0.1035,-0.0974,0,0,0,0,0,0.0012,-0.0023,-0.0111,-0.0266,-0.0379,-0.046,-0.0594,-0.0678,-0.0824,-0.0827,-0.0913,-0.0943,-0.099,-0.1053,-0.1013,-0.1113,-0.1135,-0.1061,-0.1091,-0.1176,-0.1185,-0.1181,0,0,0,0,0,0,0.0066,0.002,-0.0064,-0.0153,-0.023,-0.0347,-0.0439,-0.0547,-0.0567,-0.0714,-0.0746,-0.0861,-0.0915,-0.098,-0.0981,-0.0995,-0.0991,-0.113,-0.1127,-0.117,-0.1179,-0.1187,-0.1186,0,0,0,0,0]},{"header":{"parameterUnit":"m.s-1","parameterCategory":2,"la1":30.2991,"la2":30.254,"lo1":-89.0895,"lo2":-89.0444,"dy":0.0017,"dx":0.0017,"nx":28,"ny":28,"refTime":"2024-04-29T21:00:00:Z","depth":"4","parameterNumber":3,"parameterNumberName":"V-component_of_CURRENTS"},"data":[0,0,0,0,0,0,0,0,0,0,0,0,0,0,0,0,0,0,0,0,0,0,0,0,0,0,0,0,0,0,0,0,0,0,0,0,0,0,0,0,0,0,0,0,0,0,0,0,0,0,0,0,0,0,0,0,0,0,-0.0205,-0.0205,0,-0.0252,-0.0253,-0.0253,-0.0178,-0.0176,-0.0173,-0.0171,-0.0112,-0.0113,-0.0114,0,0,0,0,0,0,0,0,0,0,0,0,0,-0.0048,-0.0051,-0.0204,-0.0205,-0.0206,-0.0252,-0.0253,-0.0253,-0.0179,-0.0176,-0.0172,-0.0169,-0.0112,-0.0113,-0.0114,0,0,0,0,0,0,0,0,0,0,0,0,0,-0.0108,-0.0052,-0.0204,-0.0174,-0.0172,-0.0252,-0.0253,-0.0254,-0.0179,-0.0175,-0.0172,-0.0168,-0.0111,-0.0113,-0.0114,-0.0199,0,0,-0.0118,-0.0118,0,0,0,0,0,0,0,0,-0.0104,-0.0113,-0.0178,-0.0176,-0.0174,-0.0205,-0.0176,-0.023,-0.018,-0.0176,-0.0171,-0.0166,-0.0136,-0.0135,-0.0154,-0.0196,-0.0194,-0.0118,-0.0119,-0.0119,-0.012,0,0,0,0,0,0,0,-0.01,-0.0111,-0.0223,-0.0179,-0.0177,-0.0158,-0.0162,-0.0186,-0.0175,-0.0176,-0.0171,-0.0178,-0.0134,-0.0153,-0.0152,-0.0193,-0.0118,-0.0119,-0.012,-0.012,-0.0216,-0.0217,0,0,0,0,0,0,-0.01,-0.0108,-0.0222,-0.0225,-0.0129,-0.0164,-0.0168,-0.0199,-0.0177,-0.0171,-0.0181,-0.0174,-0.0153,-0.0151,-0.0149,-0.0186,-0.0119,-0.012,-0.0121,-0.0214,-0.0216,-0.0218,0,0,0,0,0,0,-0.0097,-0.0111,-0.022,-0.0165,-0.0177,-0.0171,-0.0206,-0.0202,-0.0209,-0.0182,-0.0173,-0.0189,-0.015,-0.0148,-0.0176,-0.0184,-0.0121,-0.0122,-0.0212,-0.0215,-0.0217,-0.0298,0,0,0,0,0,0,-0.0093,-0.011,-0.0134,-0.0167,-0.0181,-0.0265,-0.0209,-0.0206,-0.022,-0.0211,-0.0187,-0.0178,-0.0147,-0.0174,-0.0177,-0.0185,-0.0123,-0.021,-0.0213,-0.0216,-0.0294,-0.0304,-0.0312,0,0,0,0,0,-0.0087,-0.0148,-0.0136,-0.0149,-0.0215,-0.0267,-0.0273,-0.0253,-0.0224,-0.0242,-0.0229,-0.0178,-0.0195,-0.0179,-0.0181,-0.0189,-0.0208,-0.0212,-0.0216,-0.0289,-0.0302,-0.0312,0,0,0,0,0,0,-0.0103,-0.0147,-0.0134,-0.0206,-0.0227,-0.0253,-0.0281,-0.0267,-0.0278,-0.0266,-0.0226,-0.0219,-0.0239,-0.022,-0.0203,-0.0226,-0.0185,-0.0189,-0.0239,-0.0251,-0.026,-0.0247,-0.0124,0,0,0,0,0,-0.0119,-0.0166,-0.0195,-0.0251,-0.0267,-0.0275,-0.0294,-0.0283,-0.0297,-0.0296,-0.028,-0.0265,-0.0267,-0.0262,-0.0263,-0.0301,-0.0238,-0.03,-0.031,-0.0317,-0.031,-0.0223,-0.0222,-0.0231,-0.0231,-0.0231,0,0,-0.0139,-0.0171,-0.0196,-0.0255,-0.0273,-0.0313,-0.0277,-0.0318,-0.0338,-0.0293,-0.0321,-0.0308,-0.0287,-0.0312,-0.0317,-0.0291,-0.029,-0.0323,-0.0329,-0.0317,-0.0227,-0.0225,-0.0224,-0.0234,-0.0233,-0.0233,0,0,-0.0209,-0.0235,-0.0291,-0.0315,-0.0349,-0.0355,-0.0367,-0.0395,-0.0389,-0.0432,-0.0389,-0.0385,-0.0405,-0.0377,-0.0369,-0.0439,-0.0346,-0.0436,-0.0468,-0.0385,-0.0382,-0.0379,-0.0322,-0.0313,-0.0434,-0.0434,-0.0434,0,-0.0224,-0.0298,-0.0315,-0.0368,-0.0383,-0.0374,-0.0418,-0.0437,-0.0463,-0.0453,-0.0444,-0.0437,-0.043,-0.0424,-0.0451,-0.0456,-0.0399,-0.0426,-0.0393,-0.0388,-0.0383,-0.0326,-0.0315,-0.0439,-0.0438,-0.0438,-0.0437,0,-0.0328,-0.0374,-0.0415,-0.0465,-0.0486,-0.053,-0.0541,-0.0558,-0.0547,-0.0536,-0.0533,-0.0528,-0.0501,-0.051,-0.0513,-0.0481,-0.045,-0.0416,-0.0356,-0.0387,-0.0326,-0.0312,-0.0445,-0.0443,-0.0442,-0.0441,0,0,-0.038,-0.0467,-0.0476,-0.0487,-0.0532,-0.0554,-0.0596,-0.0606,-0.0602,-0.061,-0.0588,-0.0611,-0.0569,-0.0558,-0.0539,-0.0491,-0.044,-0.0452,-0.0446,-0.0384,-0.0264,-0.0274,-0.026,-0.0387,-0.0384,-0.0383,-0.0243,0,-0.044,-0.0542,-0.0566,-0.0622,-0.0657,-0.0649,-0.068,-0.0679,-0.0667,-0.065,-0.061,-0.0594,-0.0596,-0.058,-0.0534,-0.0458,-0.0405,-0.0481,-0.0255,-0.0249,-0.0241,-0.0245,-0.0376,-0.0233,-0.0229,-0.0227,-0.0225,0,-0.0523,-0.0565,-0.0649,-0.0667,-0.068,-0.0714,-0.0709,-0.0732,-0.0704,-0.069,-0.0647,-0.0603,-0.0553,-0.0543,-0.0402,-0.0446,-0.0367,-0.0307,-0.0298,-0.0263,-0.0233,-0.019,-0.02,-0.0202,-0.0204,-0.0206,-0.0207,0,-0.0534,-0.0608,-0.0665,-0.0682,-0.0723,-0.0739,-0.0747,-0.074,-0.0736,-0.0696,-0.0667,-0.0592,-0.0538,-0.0431,-0.0331,-0.0349,-0.0158,-0.0152,-0.0084,-0.0083,-0.0077,-0.0082,-0.0032,-0.0032,-0.0033,-0.0033,-0.0034,0,-0.0579,-0.0614,-0.0676,-0.0706,-0.0732,-0.075,-0.0764,-0.0766,-0.0749,-0.0719,-0.0675,-0.062,-0.0502,-0.0385,-0.0302,-0.0154,-0.0118,-0.0083,-0.004,-0.0123,-0.0133,-0.0069,-0.0075,-0.0028,-0.0029,-0.003,-0.0031,0,-0.0584,-0.0645,-0.0693,-0.074,-0.0751,-0.0764,-0.0777,-0.0776,-0.0767,-0.0722,-0.0703,-0.0609,-0.0467,-0.035,-0.0165,-0.0107,0.0026,0.0073,-0.0035,-0.0002,0.0035,0.0022,0.0167,0.0168,0.0169,0.0169,0.017,0,-0.0588,-0.063,-0.0704,-0.0726,-0.0751,-0.0771,-0.0784,-0.0789,-0.0771,-0.0705,-0.0667,-0.054,-0.0465,-0.0206,-0.0105,0.0071,0.0085,0.0152,0.0087,0.0032,0.0059,0.0045,0.0032,0.0171,0.0172,0.0172,0.0172,0,-0.0558,-0.0615,-0.0656,-0.0707,-0.0735,-0.0757,-0.0765,-0.0753,-0.0735,-0.0726,-0.0604,-0.0491,-0.0332,-0.0181,-0.0046,0.0074,0.0103,0.0161,0.016,0.0098,0.0039,0.0062,0.0048,0.0175,0.0175,0.0174,0.0174,0,-0.0515,-0.0543,-0.0614,-0.0648,-0.0693,-0.0716,-0.0737,-0.0697,-0.068,-0.0616,-0.0567,-0.0427,-0.0347,-0.0176,-0.0049,0.006,0.0073,0.0098,0.0099,0.0097,0.0014,-0.0075,0.0074,0,0,0,0,0,-0.0442,-0.048,-0.053,-0.0584,-0.064,-0.0666,-0.0698,-0.0714,-0.0697,-0.0605,-0.0588,-0.0445,-0.026,-0.0177,-0.0066,-0.0054,0.0076,0.0077,0.0102,0.0191,0.0188,0.0099,0,0,0,0,0,0,-0.0404,-0.0445,-0.0503,-0.0515,-0.0547,-0.0594,-0.0626,-0.0636,-0.058,-0.0556,-0.0451,-0.0413,-0.0231,-0.0308,-0.0055,-0.0026,0.0003,0.0157,0.016,0.0193,0.019,0.0187,0.0095,0,0,0,0,0]}]]